Time,TemperatureF,DewpointF,PressureIn,WindDirection,WindDirectionDegrees,WindSpeedMPH,WindSpeedGustMPH,Humidity,HourlyPrecipIn,Conditions,Clouds,dailyrainin,SoftwareType,DateUTC
2013-02-09 00:03:00,50.0,30.6,29.59,North,0,0.0,0.0,47,0.00,,BKN,0.00,VWS V14.01,2013-02-09 06:03:00,
2013-02-09 00:08:00,50.0,30.6,29.59,North,0,0.0,0.0,47,0.00,,BKN,0.00,VWS V14.01,2013-02-09 06:08:00,
2013-02-09 00:13:00,49.8,30.9,29.59,North,0,0.0,0.0,48,0.00,,BKN,0.00,VWS V14.01,2013-02-09 06:13:00,
2013-02-09 00:18:00,49.6,30.8,29.56,North,0,0.0,0.0,48,0.00,,BKN,0.00,VWS V14.01,2013-02-09 06:18:00,
2013-02-09 00:23:00,49.6,30.8,29.56,North,0,0.0,0.0,48,0.00,,BKN,0.00,VWS V14.01,2013-02-09 06:23:00,
2013-02-09 00:28:00,49.8,30.9,29.56,North,0,0.0,0.0,48,0.00,,BKN,0.00,VWS V14.01,2013-02-09 06:28:00,
2013-02-09 00:33:00,50.0,31.1,29.56,North,0,0.0,0.0,48,0.00,,BKN,0.00,VWS V14.01,2013-02-09 06:33:00,
2013-02-09 00:38:00,50.2,32.3,29.56,North,0,0.0,0.0,50,0.00,,BKN,0.00,VWS V14.01,2013-02-09 06:38:00,
2013-02-09 00:43:00,50.7,32.8,29.56,North,0,0.0,0.0,50,0.00,,BKN,0.00,VWS V14.01,2013-02-09 06:43:00,
2013-02-09 00:48:00,51.1,33.1,29.56,North,0,0.0,0.0,50,0.00,,BKN,0.00,VWS V14.01,2013-02-09 06:48:00,
2013-02-09 00:53:00,51.4,33.9,29.56,North,0,0.0,0.0,51,0.00,,BKN,0.00,VWS V14.01,2013-02-09 06:53:00,
2013-02-09 00:59:00,51.6,34.6,29.56,North,0,0.0,0.0,52,0.00,,BKN,0.00,VWS V14.01,2013-02-09 06:59:00,
2013-02-09 01:04:00,51.8,34.8,29.56,North,0,0.0,0.0,52,0.00,,BKN,0.00,VWS V14.01,2013-02-09 07:04:00,
2013-02-09 01:09:00,52.0,36.3,29.56,North,0,0.0,0.0,55,0.00,,BKN,0.00,VWS V14.01,2013-02-09 07:09:00,
2013-02-09 01:14:00,52.0,37.7,29.56,North,0,0.0,0.0,58,0.00,,BKN,0.00,VWS V14.01,2013-02-09 07:14:00,
2013-02-09 01:19:00,52.2,37.8,29.56,North,0,0.0,0.0,58,0.00,,BKN,0.00,VWS V14.01,2013-02-09 07:19:00,
2013-02-09 01:24:00,52.2,38.3,29.56,North,0,0.0,0.0,59,0.00,,BKN,0.00,VWS V14.01,2013-02-09 07:24:00,
2013-02-09 01:29:00,52.3,38.0,29.56,North,0,0.0,0.0,58,0.00,,BKN,0.00,VWS V14.01,2013-02-09 07:29:00,
2013-02-09 01:34:00,52.3,38.9,29.56,North,0,0.0,0.0,60,0.00,,BKN,0.00,VWS V14.01,2013-02-09 07:34:00,
2013-02-09 01:39:00,52.3,39.3,29.56,North,0,0.0,0.0,61,0.00,,BKN,0.00,VWS V14.01,2013-02-09 07:39:00,
2013-02-09 01:45:00,52.3,39.3,29.56,North,0,0.0,0.0,61,0.00,,BKN,0.00,VWS V14.01,2013-02-09 07:45:00,
2013-02-09 01:50:00,52.3,39.7,29.56,North,0,0.0,0.0,62,0.00,,BKN,0.00,VWS V14.01,2013-02-09 07:50:00,
2013-02-09 01:55:00,52.3,39.7,29.56,North,0,0.0,0.0,62,0.00,,BKN,0.00,VWS V14.01,2013-02-09 07:55:00,
2013-02-09 02:00:00,52.2,39.5,29.56,North,0,0.0,0.0,62,0.00,,BKN,0.00,VWS V14.01,2013-02-09 08:00:00,
2013-02-09 02:05:00,52.0,39.8,29.56,North,0,0.0,0.0,63,0.00,,BKN,0.00,VWS V14.01,2013-02-09 08:05:00,
2013-02-09 02:10:00,52.0,39.4,29.56,North,0,0.0,0.0,62,0.00,,BKN,0.00,VWS V14.01,2013-02-09 08:10:00,
2013-02-09 02:15:00,52.0,40.2,29.56,North,0,0.0,0.0,64,0.00,,BKN,0.00,VWS V14.01,2013-02-09 08:15:00,
2013-02-09 02:20:00,52.0,40.6,29.56,North,0,0.0,0.0,65,0.00,,BKN,0.00,VWS V14.01,2013-02-09 08:20:00,
2013-02-09 02:25:00,52.2,40.8,29.56,North,0,0.0,0.0,65,0.00,,BKN,0.00,VWS V14.01,2013-02-09 08:25:00,
2013-02-09 02:30:00,52.3,42.1,29.53,North,0,0.0,0.0,68,0.00,,BKN,0.00,VWS V14.01,2013-02-09 08:30:00,
2013-02-09 02:35:00,52.3,42.1,29.53,North,0,0.0,0.0,68,0.00,,BKN,0.00,VWS V14.01,2013-02-09 08:35:00,
2013-02-09 02:41:00,52.3,42.5,29.53,North,0,0.0,0.0,69,0.00,,BKN,0.00,VWS V14.01,2013-02-09 08:41:00,
2013-02-09 02:46:00,52.3,42.5,29.53,North,0,0.0,0.0,69,0.00,,BKN,0.00,VWS V14.01,2013-02-09 08:46:00,
2013-02-09 02:51:00,52.3,42.5,29.53,North,0,0.0,0.0,69,0.00,,BKN,0.00,VWS V14.01,2013-02-09 08:51:00,
2013-02-09 02:56:00,52.5,42.7,29.53,North,0,0.0,0.0,69,0.00,,BKN,0.00,VWS V14.01,2013-02-09 08:56:00,
2013-02-09 03:01:00,52.5,42.7,29.53,North,0,0.0,0.0,69,0.00,,BKN,0.00,VWS V14.01,2013-02-09 09:01:00,
2013-02-09 03:06:00,52.5,42.7,29.53,North,0,0.0,0.0,69,0.00,,BKN,0.00,VWS V14.01,2013-02-09 09:06:00,
2013-02-09 03:11:00,52.5,42.7,29.53,North,0,0.0,0.0,69,0.00,,BKN,0.00,VWS V14.01,2013-02-09 09:11:00,
2013-02-09 03:16:00,52.5,42.7,29.53,North,0,0.0,0.0,69,0.00,,BKN,0.00,VWS V14.01,2013-02-09 09:16:00,
2013-02-09 03:22:00,52.5,42.7,29.53,North,0,0.0,0.0,69,0.00,,BKN,0.00,VWS V14.01,2013-02-09 09:22:00,
2013-02-09 03:27:00,52.5,42.3,29.53,North,0,0.0,0.0,68,0.00,,BKN,0.00,VWS V14.01,2013-02-09 09:27:00,
2013-02-09 03:32:00,52.5,42.7,29.53,North,0,0.0,0.0,69,0.00,,BKN,0.00,VWS V14.01,2013-02-09 09:32:00,
2013-02-09 03:37:00,52.3,42.5,29.53,North,0,0.0,0.0,69,0.00,,BKN,0.00,VWS V14.01,2013-02-09 09:37:00,
2013-02-09 03:42:00,52.3,42.9,29.53,North,0,0.0,0.0,70,0.00,,BKN,0.00,VWS V14.01,2013-02-09 09:42:00,
2013-02-09 03:47:00,52.3,42.9,29.56,North,0,0.0,0.0,70,0.00,,BKN,0.00,VWS V14.01,2013-02-09 09:47:00,
2013-02-09 03:52:00,52.3,42.9,29.56,North,0,0.0,0.0,70,0.00,,BKN,0.00,VWS V14.01,2013-02-09 09:52:00,
2013-02-09 03:57:00,52.2,42.3,29.56,North,0,0.0,0.0,69,0.00,,BKN,0.00,VWS V14.01,2013-02-09 09:57:00,
2013-02-09 04:02:00,52.2,42.7,29.53,North,0,0.0,0.0,70,0.00,,BKN,0.00,VWS V14.01,2013-02-09 10:02:00,
2013-02-09 04:08:00,52.3,42.5,29.53,North,0,0.0,0.0,69,0.00,,BKN,0.00,VWS V14.01,2013-02-09 10:08:00,
2013-02-09 04:13:00,52.3,42.5,29.53,North,0,0.0,0.0,69,0.00,,BKN,0.00,VWS V14.01,2013-02-09 10:13:00,
2013-02-09 04:18:00,52.3,42.5,29.56,North,0,0.0,0.0,69,0.00,,BKN,0.00,VWS V14.01,2013-02-09 10:18:00,
2013-02-09 04:23:00,52.2,42.7,29.56,North,0,0.0,0.0,70,0.00,,BKN,0.00,VWS V14.01,2013-02-09 10:23:00,
2013-02-09 04:28:00,52.2,42.7,29.56,North,0,0.0,0.0,70,0.00,,BKN,0.00,VWS V14.01,2013-02-09 10:28:00,
2013-02-09 04:33:00,52.0,42.9,29.56,North,0,0.0,0.0,71,0.00,,BKN,0.00,VWS V14.01,2013-02-09 10:33:00,
2013-02-09 04:38:00,52.0,43.2,29.56,North,0,0.0,0.0,72,0.00,,BKN,0.00,VWS V14.01,2013-02-09 10:38:00,
2013-02-09 04:43:00,51.8,43.1,29.56,North,0,0.0,0.0,72,0.00,,BKN,0.00,VWS V14.01,2013-02-09 10:43:00,
2013-02-09 04:49:00,51.8,43.4,29.53,North,0,0.0,0.0,73,0.00,,BKN,0.00,VWS V14.01,2013-02-09 10:49:00,
2013-02-09 04:54:00,51.8,43.4,29.53,North,0,0.0,0.0,73,0.00,,BKN,0.00,VWS V14.01,2013-02-09 10:54:00,
2013-02-09 04:59:00,51.6,43.6,29.53,North,0,0.0,0.0,74,0.00,,BKN,0.00,VWS V14.01,2013-02-09 10:59:00,
2013-02-09 05:04:00,51.4,43.8,29.53,North,0,0.0,0.0,75,0.00,,BKN,0.00,VWS V14.01,2013-02-09 11:04:00,
2013-02-09 05:09:00,51.3,43.6,29.53,North,0,0.0,0.0,75,0.00,,BKN,0.00,VWS V14.01,2013-02-09 11:09:00,
2013-02-09 05:14:00,51.1,43.8,29.53,North,0,0.0,0.0,76,0.00,,BKN,0.00,VWS V14.01,2013-02-09 11:14:00,
2013-02-09 05:19:00,50.9,43.6,29.53,North,0,0.0,0.0,76,0.00,,BKN,0.00,VWS V14.01,2013-02-09 11:19:00,
2013-02-09 05:24:00,50.9,43.6,29.53,North,0,0.0,0.0,76,0.00,,BKN,0.00,VWS V14.01,2013-02-09 11:24:00,
2013-02-09 05:29:00,51.1,43.8,29.53,North,0,0.0,0.0,76,0.00,,BKN,0.00,VWS V14.01,2013-02-09 11:29:00,
2013-02-09 05:35:00,51.1,43.8,29.53,North,0,0.0,0.0,76,0.00,,BKN,0.00,VWS V14.01,2013-02-09 11:35:00,
2013-02-09 05:40:00,51.3,44.0,29.53,North,0,0.0,0.0,76,0.00,,BKN,0.00,VWS V14.01,2013-02-09 11:40:00,
2013-02-09 05:45:00,51.3,43.6,29.56,North,0,0.0,0.0,75,0.00,,BKN,0.00,VWS V14.01,2013-02-09 11:45:00,
2013-02-09 05:50:00,51.4,43.8,29.56,North,0,0.0,0.0,75,0.00,,BKN,0.00,VWS V14.01,2013-02-09 11:50:00,
2013-02-09 05:55:00,51.4,43.8,29.56,North,0,0.0,0.0,75,0.00,,BKN,0.00,VWS V14.01,2013-02-09 11:55:00,
2013-02-09 06:00:00,51.4,43.8,29.53,North,0,0.0,0.0,75,0.00,,BKN,0.00,VWS V14.01,2013-02-09 12:00:00,
2013-02-09 06:05:00,51.4,43.8,29.53,North,0,0.0,0.0,75,0.00,,BKN,0.00,VWS V14.01,2013-02-09 12:05:00,
2013-02-09 06:10:00,51.4,43.8,29.53,North,0,0.0,0.0,75,0.00,,BKN,0.00,VWS V14.01,2013-02-09 12:10:00,
2013-02-09 06:15:00,51.3,43.6,29.53,North,0,0.0,0.0,75,0.00,,BKN,0.00,VWS V14.01,2013-02-09 12:15:00,
2013-02-09 06:20:00,51.3,43.6,29.53,North,0,0.0,0.0,75,0.00,,BKN,0.00,VWS V14.01,2013-02-09 12:20:00,
2013-02-09 06:25:00,51.1,43.4,29.53,North,0,0.0,0.0,75,0.00,,BKN,0.00,VWS V14.01,2013-02-09 12:25:00,
2013-02-09 06:30:00,51.1,43.4,29.53,North,0,0.0,0.0,75,0.00,,BKN,0.00,VWS V14.01,2013-02-09 12:30:00,
2013-02-09 06:36:00,51.1,43.4,29.53,North,0,0.0,0.0,75,0.00,,BKN,0.00,VWS V14.01,2013-02-09 12:36:00,
2013-02-09 06:41:00,50.9,43.3,29.53,North,0,0.0,0.0,75,0.00,,BKN,0.00,VWS V14.01,2013-02-09 12:41:00,
2013-02-09 06:46:00,50.9,43.3,29.53,North,0,0.0,0.0,75,0.00,,BKN,0.00,VWS V14.01,2013-02-09 12:46:00,
2013-02-09 06:51:00,50.9,43.3,29.53,North,0,0.0,0.0,75,0.00,,BKN,0.00,VWS V14.01,2013-02-09 12:51:00,
2013-02-09 06:56:00,50.7,42.8,29.53,North,0,0.0,0.0,74,0.00,,BKN,0.00,VWS V14.01,2013-02-09 12:56:00,
2013-02-09 07:01:00,50.4,42.0,29.53,North,0,0.0,0.0,73,0.00,,BKN,0.00,VWS V14.01,2013-02-09 13:01:00,
2013-02-09 07:06:00,50.2,41.5,29.53,North,0,0.0,0.0,72,0.00,,BKN,0.00,VWS V14.01,2013-02-09 13:06:00,
2013-02-09 07:11:00,50.2,41.5,29.53,North,0,0.0,0.0,72,0.00,,BKN,0.00,VWS V14.01,2013-02-09 13:11:00,
2013-02-09 07:17:00,50.2,40.8,29.53,North,0,0.0,0.0,70,0.00,,BKN,0.00,VWS V14.01,2013-02-09 13:17:00,
2013-02-09 07:22:00,50.2,40.8,29.53,North,0,0.0,0.0,70,0.00,,BKN,0.00,VWS V14.01,2013-02-09 13:22:00,
2013-02-09 07:27:00,50.0,41.0,29.53,North,0,0.0,0.0,71,0.00,,BKN,0.00,VWS V14.01,2013-02-09 13:27:00,
2013-02-09 07:32:00,50.0,41.0,29.53,North,0,0.0,0.0,71,0.00,,BKN,0.00,VWS V14.01,2013-02-09 13:32:00,
2013-02-09 07:37:00,50.0,41.0,29.53,North,0,0.0,0.0,71,0.00,,BKN,0.00,VWS V14.01,2013-02-09 13:37:00,
2013-02-09 07:42:00,50.0,41.3,29.53,North,0,0.0,0.0,72,0.00,,BKN,0.00,VWS V14.01,2013-02-09 13:42:00,
2013-02-09 07:47:00,50.0,41.0,29.56,North,0,0.0,0.0,71,0.00,,BKN,0.00,VWS V14.01,2013-02-09 13:47:00,
2013-02-09 07:52:00,50.0,41.0,29.56,North,0,0.0,0.0,71,0.00,,BKN,0.00,VWS V14.01,2013-02-09 13:52:00,
2013-02-09 07:57:00,50.0,40.6,29.56,North,0,0.0,0.0,70,0.00,,BKN,0.00,VWS V14.01,2013-02-09 13:57:00,
2013-02-09 08:03:00,50.0,40.2,29.53,North,0,0.0,0.0,69,0.00,,BKN,0.00,VWS V14.01,2013-02-09 14:03:00,
2013-02-09 08:08:00,50.0,40.2,29.53,North,0,0.0,0.0,69,0.00,,BKN,0.00,VWS V14.01,2013-02-09 14:08:00,
2013-02-09 08:13:00,50.0,39.9,29.53,North,0,0.0,0.0,68,0.00,,BKN,0.00,VWS V14.01,2013-02-09 14:13:00,
2013-02-09 08:18:00,50.2,40.0,29.53,North,0,0.0,0.0,68,0.00,,BKN,0.00,VWS V14.01,2013-02-09 14:18:00,
2013-02-09 08:23:00,50.2,40.0,29.53,North,0,0.0,0.0,68,0.00,,BKN,0.00,VWS V14.01,2013-02-09 14:23:00,
2013-02-09 08:28:00,50.0,39.9,29.53,North,0,0.0,0.0,68,0.00,,BKN,0.00,VWS V14.01,2013-02-09 14:28:00,
2013-02-09 08:33:00,50.0,39.9,29.53,North,0,0.0,0.0,68,0.00,,BKN,0.00,VWS V14.01,2013-02-09 14:33:00,
2013-02-09 08:39:00,50.0,39.9,29.53,North,0,0.0,0.0,68,0.00,,BKN,0.00,VWS V14.01,2013-02-09 14:39:00,
2013-02-09 08:44:00,50.0,39.5,29.53,North,0,0.0,0.0,67,0.00,,BKN,0.00,VWS V14.01,2013-02-09 14:44:00,
2013-02-09 08:49:00,50.2,39.7,29.53,North,0,0.0,0.0,67,0.00,,BKN,0.00,VWS V14.01,2013-02-09 14:49:00,
2013-02-09 08:54:00,50.2,39.7,29.53,North,0,0.0,0.0,67,0.00,,BKN,0.00,VWS V14.01,2013-02-09 14:54:00,
2013-02-09 08:59:00,50.4,39.8,29.53,North,0,0.0,0.0,67,0.00,,BKN,0.00,VWS V14.01,2013-02-09 14:59:00,
2013-02-09 09:05:00,50.4,39.8,29.53,North,0,0.0,0.0,67,0.00,,BKN,0.00,VWS V14.01,2013-02-09 15:05:00,
2013-02-09 09:10:00,50.4,39.8,29.53,North,0,0.0,0.0,67,0.00,,BKN,0.00,VWS V14.01,2013-02-09 15:10:00,
2013-02-09 09:15:00,50.7,40.6,29.53,North,0,0.0,0.0,68,0.00,,BKN,0.00,VWS V14.01,2013-02-09 15:15:00,
2013-02-09 09:20:00,51.3,40.7,29.53,North,0,0.0,0.0,67,0.00,,BKN,0.00,VWS V14.01,2013-02-09 15:20:00,
2013-02-09 09:25:00,51.4,40.5,29.53,North,0,0.0,0.0,66,0.00,,BKN,0.00,VWS V14.01,2013-02-09 15:25:00,
2013-02-09 09:31:00,51.4,40.1,29.53,North,0,0.0,0.0,65,0.00,,BKN,0.00,VWS V14.01,2013-02-09 15:31:00,
2013-02-09 09:36:00,51.3,40.3,29.53,North,0,0.0,0.0,66,0.00,,BKN,0.00,VWS V14.01,2013-02-09 15:36:00,
2013-02-09 09:41:00,51.4,40.5,29.53,North,0,0.0,0.0,66,0.00,,BKN,0.00,VWS V14.01,2013-02-09 15:41:00,
2013-02-09 09:46:00,51.4,40.9,29.53,North,0,0.0,0.0,67,0.00,,BKN,0.00,VWS V14.01,2013-02-09 15:46:00,
2013-02-09 09:51:00,51.4,40.9,29.53,North,0,0.0,0.0,67,0.00,,BKN,0.00,VWS V14.01,2013-02-09 15:51:00,
2013-02-09 09:56:00,51.3,40.7,29.53,North,0,0.0,0.0,67,0.00,,BKN,0.00,VWS V14.01,2013-02-09 15:56:00,
2013-02-09 10:02:00,51.3,41.1,29.53,North,0,0.0,0.0,68,0.00,,BKN,0.00,VWS V14.01,2013-02-09 16:02:00,
2013-02-09 10:07:00,51.1,40.9,29.53,North,0,0.0,0.0,68,0.00,,BKN,0.00,VWS V14.01,2013-02-09 16:07:00,
2013-02-09 10:12:00,50.9,41.1,29.53,North,0,0.0,0.0,69,0.00,,BKN,0.00,VWS V14.01,2013-02-09 16:12:00,
2013-02-09 10:17:00,50.9,41.1,29.53,North,0,0.0,0.0,69,0.00,,BKN,0.00,VWS V14.01,2013-02-09 16:17:00,
2013-02-09 10:22:00,51.1,41.7,29.53,North,0,0.0,0.0,70,0.00,,BKN,0.00,VWS V14.01,2013-02-09 16:22:00,
2013-02-09 10:27:00,51.1,41.7,29.53,North,0,0.0,0.0,70,0.00,,BKN,0.00,VWS V14.01,2013-02-09 16:27:00,
2013-02-09 10:33:00,51.1,41.3,29.53,North,0,0.0,0.0,69,0.00,,BKN,0.00,VWS V14.01,2013-02-09 16:33:00,
2013-02-09 10:38:00,50.9,41.5,29.53,North,0,0.0,0.0,70,0.00,,BKN,0.00,VWS V14.01,2013-02-09 16:38:00,
2013-02-09 10:43:00,50.9,41.5,29.53,North,0,0.0,0.0,70,0.00,,BKN,0.00,VWS V14.01,2013-02-09 16:43:00,
2013-02-09 10:48:00,51.1,42.0,29.53,North,0,0.0,0.0,71,0.00,,BKN,0.00,VWS V14.01,2013-02-09 16:48:00,
2013-02-09 10:53:00,51.6,42.9,29.53,North,0,0.0,0.0,72,0.00,,BKN,0.00,VWS V14.01,2013-02-09 16:53:00,
2013-02-09 10:59:00,52.3,44.0,29.53,North,0,0.0,0.0,73,0.00,,BKN,0.00,VWS V14.01,2013-02-09 16:59:00,
2013-02-09 11:04:00,52.9,43.8,29.50,North,0,0.0,0.0,71,0.00,,BKN,0.00,VWS V14.01,2013-02-09 17:04:00,
2013-02-09 11:09:00,53.2,43.7,29.50,North,0,0.0,0.0,70,0.00,,BKN,0.00,VWS V14.01,2013-02-09 17:09:00,
2013-02-09 11:14:00,53.4,43.9,29.50,North,0,0.0,0.0,70,0.00,,BKN,0.00,VWS V14.01,2013-02-09 17:14:00,
2013-02-09 11:19:00,53.2,43.0,29.50,North,0,0.0,0.0,68,0.00,,BKN,0.00,VWS V14.01,2013-02-09 17:19:00,
2013-02-09 11:24:00,52.9,42.6,29.50,North,0,0.0,0.0,68,0.00,,BKN,0.00,VWS V14.01,2013-02-09 17:24:00,
2013-02-09 11:30:00,52.9,42.6,29.50,North,0,0.0,0.0,68,0.00,,BKN,0.00,VWS V14.01,2013-02-09 17:30:00,
2013-02-09 11:35:00,52.9,42.6,29.50,North,0,0.0,0.0,68,0.00,,BKN,0.00,VWS V14.01,2013-02-09 17:35:00,
2013-02-09 11:40:00,52.9,43.0,29.50,North,0,0.0,0.0,69,0.00,,BKN,0.00,VWS V14.01,2013-02-09 17:40:00,
2013-02-09 11:45:00,52.9,43.0,29.50,North,0,0.0,0.0,69,0.00,,BKN,0.00,VWS V14.01,2013-02-09 17:45:00,
2013-02-09 11:50:00,53.1,43.9,29.50,North,0,0.0,0.0,71,0.00,,BKN,0.00,VWS V14.01,2013-02-09 17:50:00,
2013-02-09 11:55:00,53.2,44.5,29.50,North,0,0.0,0.0,72,0.00,,BKN,0.00,VWS V14.01,2013-02-09 17:55:00,
2013-02-09 12:00:00,53.1,44.7,29.47,North,0,0.0,0.0,73,0.00,,BKN,0.00,VWS V14.01,2013-02-09 18:00:00,
2013-02-09 12:06:00,53.1,44.3,29.47,North,0,0.0,0.0,72,0.00,,BKN,0.00,VWS V14.01,2013-02-09 18:06:00,
2013-02-09 12:11:00,53.2,44.5,29.47,North,0,0.0,0.0,72,0.00,,BKN,0.00,VWS V14.01,2013-02-09 18:11:00,
2013-02-09 12:16:00,53.4,44.6,29.44,North,0,0.0,0.0,72,0.00,,BKN,0.00,VWS V14.01,2013-02-09 18:16:00,
2013-02-09 12:21:00,53.4,44.3,29.44,North,0,0.0,0.0,71,0.00,,BKN,0.00,VWS V14.01,2013-02-09 18:21:00,
2013-02-09 12:26:00,53.6,44.1,29.44,North,0,0.0,0.0,70,0.00,,BKN,0.00,VWS V14.01,2013-02-09 18:26:00,
2013-02-09 12:31:00,53.6,44.4,29.44,North,0,0.0,0.0,71,0.00,,BKN,0.00,VWS V14.01,2013-02-09 18:31:00,
2013-02-09 12:36:00,53.6,44.4,29.44,North,0,0.0,0.0,71,0.00,,BKN,0.00,VWS V14.01,2013-02-09 18:36:00,
2013-02-09 12:42:00,53.4,44.6,29.44,North,0,0.0,0.0,72,0.00,,BKN,0.00,VWS V14.01,2013-02-09 18:42:00,
2013-02-09 12:47:00,53.4,44.6,29.41,North,0,0.0,0.0,72,0.00,,BKN,0.00,VWS V14.01,2013-02-09 18:47:00,
2013-02-09 12:52:00,53.4,44.6,29.41,North,0,0.0,0.0,72,0.00,,BKN,0.00,VWS V14.01,2013-02-09 18:52:00,
2013-02-09 12:57:00,53.8,45.0,29.41,North,0,0.0,0.0,72,0.00,,BKN,0.00,VWS V14.01,2013-02-09 18:57:00,
2013-02-09 13:02:00,54.3,45.5,29.41,North,0,0.0,0.0,72,0.00,,BKN,0.00,VWS V14.01,2013-02-09 19:02:00,
2013-02-09 13:07:00,54.7,45.1,29.41,North,0,0.0,0.0,70,0.00,,BKN,0.00,VWS V14.01,2013-02-09 19:07:00,
2013-02-09 13:12:00,54.5,44.9,29.41,North,0,0.0,0.0,70,0.00,,BKN,0.00,VWS V14.01,2013-02-09 19:12:00,
2013-02-09 13:17:00,54.7,45.1,29.41,North,0,0.0,0.0,70,0.00,,BKN,0.00,VWS V14.01,2013-02-09 19:17:00,
2013-02-09 13:22:00,54.9,45.3,29.41,North,0,0.0,0.0,70,0.00,,BKN,0.00,VWS V14.01,2013-02-09 19:22:00,
2013-02-09 13:28:00,55.0,45.1,29.41,North,0,0.0,0.0,69,0.00,,BKN,0.00,VWS V14.01,2013-02-09 19:28:00,
2013-02-09 13:33:00,55.0,45.1,29.41,North,0,0.0,0.0,69,0.00,,BKN,0.00,VWS V14.01,2013-02-09 19:33:00,
2013-02-09 13:38:00,55.2,45.6,29.41,North,0,0.0,0.0,70,0.00,,BKN,0.00,VWS V14.01,2013-02-09 19:38:00,
2013-02-09 13:43:00,55.0,45.5,29.41,North,0,0.0,0.0,70,0.00,,BKN,0.00,VWS V14.01,2013-02-09 19:43:00,
2013-02-09 13:49:00,55.0,45.5,29.38,North,0,0.0,0.0,70,0.00,,BKN,0.00,VWS V14.01,2013-02-09 19:49:00,
2013-02-09 13:54:00,55.0,45.5,29.38,North,0,0.0,0.0,70,0.00,,BKN,0.00,VWS V14.01,2013-02-09 19:54:00,
2013-02-09 13:59:00,54.7,45.1,29.38,North,0,0.0,0.0,70,0.00,,BKN,0.00,VWS V14.01,2013-02-09 19:59:00,
2013-02-09 14:04:00,54.3,45.5,29.38,North,0,0.0,0.0,72,0.00,,BKN,0.00,VWS V14.01,2013-02-09 20:04:00,
2013-02-09 14:09:00,54.1,45.7,29.38,North,0,0.0,0.0,73,0.00,,BKN,0.00,VWS V14.01,2013-02-09 20:09:00,
2013-02-09 14:14:00,53.8,45.7,29.38,North,0,0.0,0.0,74,0.00,,BKN,0.00,VWS V14.01,2013-02-09 20:14:00,
2013-02-09 14:20:00,54.0,46.2,29.38,North,0,0.0,0.0,75,0.00,,BKN,0.00,VWS V14.01,2013-02-09 20:20:00,
2013-02-09 14:25:00,54.1,46.0,29.38,North,0,0.0,0.0,74,0.00,,BKN,0.00,VWS V14.01,2013-02-09 20:25:00,
2013-02-09 14:30:00,54.0,45.9,29.35,North,0,0.0,0.0,74,0.00,,BKN,0.00,VWS V14.01,2013-02-09 20:30:00,
2013-02-09 14:35:00,54.0,45.9,29.35,North,0,0.0,0.0,74,0.00,,BKN,0.00,VWS V14.01,2013-02-09 20:35:00,
2013-02-09 14:40:00,54.0,46.2,29.35,North,0,0.0,0.0,75,0.00,,BKN,0.00,VWS V14.01,2013-02-09 20:40:00,
2013-02-09 14:45:00,54.0,45.9,29.35,North,0,0.0,0.0,74,0.00,,BKN,0.00,VWS V14.01,2013-02-09 20:45:00,
2013-02-09 14:50:00,53.8,46.0,29.35,North,0,0.0,0.0,75,0.00,,BKN,0.00,VWS V14.01,2013-02-09 20:50:00,
2013-02-09 14:55:00,53.8,46.4,29.35,North,0,0.0,0.0,76,0.00,,BKN,0.00,VWS V14.01,2013-02-09 20:55:00,
2013-02-09 15:00:00,54.0,46.2,29.35,North,0,0.0,0.0,75,0.00,,BKN,0.00,VWS V14.01,2013-02-09 21:00:00,
2013-02-09 15:05:00,54.0,46.2,29.35,North,0,0.0,0.0,75,0.00,,BKN,0.00,VWS V14.01,2013-02-09 21:05:00,
2013-02-09 15:10:00,53.8,46.0,29.35,North,0,0.0,0.0,75,0.00,,BKN,0.00,VWS V14.01,2013-02-09 21:10:00,
2013-02-09 15:16:00,53.8,46.4,29.32,North,0,0.0,0.0,76,0.00,,BKN,0.00,VWS V14.01,2013-02-09 21:16:00,
2013-02-09 15:21:00,53.8,46.4,29.32,North,0,0.0,0.0,76,0.00,,BKN,0.00,VWS V14.01,2013-02-09 21:21:00,
2013-02-09 15:26:00,53.8,46.8,29.32,North,0,0.0,0.0,77,0.00,,BKN,0.00,VWS V14.01,2013-02-09 21:26:00,
2013-02-09 15:31:00,53.8,46.8,29.32,North,0,0.0,0.0,77,0.00,,BKN,0.00,VWS V14.01,2013-02-09 21:31:00,
2013-02-09 15:36:00,53.6,46.9,29.32,North,0,0.0,0.0,78,0.00,,BKN,0.00,VWS V14.01,2013-02-09 21:36:00,
2013-02-09 15:42:00,53.4,47.1,29.32,North,0,0.0,0.0,79,0.00,,BKN,0.00,VWS V14.01,2013-02-09 21:42:00,
2013-02-09 15:47:00,53.4,47.4,29.32,North,0,0.0,0.0,80,0.00,,BKN,0.00,VWS V14.01,2013-02-09 21:47:00,
2013-02-09 15:52:00,53.4,47.4,29.32,North,0,0.0,0.0,80,0.00,,BKN,0.00,VWS V14.01,2013-02-09 21:52:00,
2013-02-09 15:57:00,53.2,47.6,29.32,North,0,0.0,0.0,81,0.00,,BKN,0.00,VWS V14.01,2013-02-09 21:57:00,
2013-02-09 16:02:00,53.1,47.7,29.32,North,0,0.0,0.0,82,0.00,,BKN,0.00,VWS V14.01,2013-02-09 22:02:00,
2013-02-09 16:08:00,53.1,47.7,29.32,North,0,0.0,0.0,82,0.00,,BKN,0.00,VWS V14.01,2013-02-09 22:08:00,
2013-02-09 16:13:00,53.1,48.0,29.32,North,0,0.0,0.0,83,0.00,,BKN,0.00,VWS V14.01,2013-02-09 22:13:00,
2013-02-09 16:18:00,53.2,48.2,29.32,North,0,0.0,0.0,83,0.00,,BKN,0.00,VWS V14.01,2013-02-09 22:18:00,
2013-02-09 16:23:00,53.1,48.0,29.32,North,0,0.0,0.0,83,0.00,,BKN,0.00,VWS V14.01,2013-02-09 22:23:00,
2013-02-09 16:28:00,53.1,48.4,29.32,North,0,0.0,0.0,84,0.00,,BKN,0.00,VWS V14.01,2013-02-09 22:28:00,
2013-02-09 16:33:00,52.9,48.5,29.32,North,0,0.0,0.0,85,0.00,,BKN,0.00,VWS V14.01,2013-02-09 22:33:00,
2013-02-09 16:38:00,52.9,48.8,29.32,North,0,0.0,0.0,86,0.00,,BKN,0.00,VWS V14.01,2013-02-09 22:38:00,
2013-02-09 16:43:00,52.9,49.1,29.32,North,0,0.0,0.0,87,0.00,,BKN,0.00,VWS V14.01,2013-02-09 22:43:00,
2013-02-09 16:48:00,52.7,49.0,29.32,North,0,0.0,0.0,87,0.00,,BKN,0.00,VWS V14.01,2013-02-09 22:48:00,
2013-02-09 16:54:00,52.7,49.0,29.32,North,0,0.0,0.0,87,0.00,,BKN,0.00,VWS V14.01,2013-02-09 22:54:00,
2013-02-09 16:59:00,52.7,49.2,29.32,North,0,0.0,0.0,88,0.00,,BKN,0.00,VWS V14.01,2013-02-09 22:59:00,
2013-02-09 17:04:00,52.7,49.2,29.32,North,0,0.0,0.0,88,0.00,,BKN,0.00,VWS V14.01,2013-02-09 23:04:00,
2013-02-09 17:09:00,52.5,49.1,29.32,North,0,0.0,0.0,88,0.00,,BKN,0.00,VWS V14.01,2013-02-09 23:09:00,
2013-02-09 17:14:00,52.3,48.9,29.32,North,0,0.0,0.0,88,0.00,,BKN,0.00,VWS V14.01,2013-02-09 23:14:00,
2013-02-09 17:19:00,52.5,49.1,29.32,North,0,0.0,0.0,88,0.00,,BKN,0.00,VWS V14.01,2013-02-09 23:19:00,
2013-02-09 17:24:00,52.7,49.5,29.32,North,0,0.0,0.0,89,0.00,,BKN,0.00,VWS V14.01,2013-02-09 23:24:00,
2013-02-09 17:29:00,52.9,50.0,29.32,North,0,0.0,0.0,90,0.00,,BKN,0.00,VWS V14.01,2013-02-09 23:29:00,
2013-02-09 17:34:00,52.7,50.2,29.32,North,0,0.0,0.0,91,0.00,,BKN,0.00,VWS V14.01,2013-02-09 23:34:00,
2013-02-09 17:40:00,52.7,50.5,29.32,North,0,0.0,0.0,92,0.00,,BKN,0.00,VWS V14.01,2013-02-09 23:40:00,
2013-02-09 17:45:00,52.9,50.6,29.29,North,0,0.0,0.0,92,0.00,,BKN,0.00,VWS V14.01,2013-02-09 23:45:00,
2013-02-09 17:50:00,52.7,50.5,29.29,North,0,0.0,0.0,92,0.00,,BKN,0.00,VWS V14.01,2013-02-09 23:50:00,
2013-02-09 17:55:00,52.7,50.5,29.29,North,0,0.0,0.0,92,0.00,,BKN,0.00,VWS V14.01,2013-02-09 23:55:00,
2013-02-09 18:00:00,52.7,50.7,29.29,North,0,0.0,0.0,93,0.00,,BKN,0.00,VWS V14.01,2013-02-10 00:00:00,
2013-02-09 18:05:00,52.3,50.1,29.29,North,0,0.0,0.0,92,0.00,,BKN,0.00,VWS V14.01,2013-02-10 00:05:00,
2013-02-09 18:10:00,52.3,50.1,29.29,North,0,0.0,0.0,92,0.00,,BKN,0.00,VWS V14.01,2013-02-10 00:10:00,
2013-02-09 18:15:00,52.2,49.9,29.29,North,0,0.0,0.0,92,0.00,,BKN,0.00,VWS V14.01,2013-02-10 00:15:00,
2013-02-09 18:20:00,52.0,49.7,29.29,North,0,0.0,0.0,92,0.00,,BKN,0.00,VWS V14.01,2013-02-10 00:20:00,
2013-02-09 18:26:00,52.0,49.7,29.29,North,0,0.0,0.0,92,0.00,,BKN,0.00,VWS V14.01,2013-02-10 00:26:00,
2013-02-09 18:31:00,51.8,49.5,29.29,North,0,0.0,0.0,92,0.00,,BKN,0.00,VWS V14.01,2013-02-10 00:31:00,
2013-02-09 18:36:00,51.8,49.5,29.29,North,0,0.0,0.0,92,0.00,,BKN,0.00,VWS V14.01,2013-02-10 00:36:00,
2013-02-09 18:41:00,51.8,49.8,29.29,North,0,0.0,0.0,93,0.00,,BKN,0.00,VWS V14.01,2013-02-10 00:41:00,
2013-02-09 18:46:00,52.0,50.0,29.26,North,0,0.0,0.0,93,0.00,,BKN,0.00,VWS V14.01,2013-02-10 00:46:00,
2013-02-09 18:51:00,52.0,50.0,29.26,North,0,0.0,0.0,93,0.00,,BKN,0.00,VWS V14.01,2013-02-10 00:51:00,
2013-02-09 18:56:00,52.0,50.0,29.26,North,0,0.0,0.0,93,0.00,,BKN,0.00,VWS V14.01,2013-02-10 00:56:00,
2013-02-09 19:01:00,52.0,50.3,29.29,North,0,0.0,0.0,94,0.00,,BKN,0.00,VWS V14.01,2013-02-10 01:01:00,
2013-02-09 19:07:00,52.2,50.5,29.29,North,0,0.0,0.0,94,0.00,,BKN,0.00,VWS V14.01,2013-02-10 01:07:00,
2013-02-09 19:12:00,52.2,50.5,29.29,North,0,0.0,0.0,94,0.00,,BKN,0.00,VWS V14.01,2013-02-10 01:12:00,
2013-02-09 19:17:00,52.3,50.7,29.26,North,0,0.0,0.0,94,0.00,,BKN,0.00,VWS V14.01,2013-02-10 01:17:00,
2013-02-09 19:22:00,52.5,50.8,29.26,North,0,0.0,0.0,94,0.00,,BKN,0.00,VWS V14.01,2013-02-10 01:22:00,
2013-02-09 19:27:00,52.5,50.8,29.26,North,0,0.0,0.0,94,0.00,,BKN,0.00,VWS V14.01,2013-02-10 01:27:00,
2013-02-09 19:32:00,52.5,50.8,29.26,North,0,0.0,0.0,94,0.00,,BKN,0.00,VWS V14.01,2013-02-10 01:32:00,
2013-02-09 19:38:00,52.7,51.0,29.26,North,0,0.0,0.0,94,0.00,,BKN,0.00,VWS V14.01,2013-02-10 01:38:00,
2013-02-09 19:43:00,52.7,51.0,29.26,North,0,0.0,0.0,94,0.00,,BKN,0.00,VWS V14.01,2013-02-10 01:43:00,
2013-02-09 19:48:00,52.9,51.2,29.26,North,0,0.0,0.0,94,0.00,,BKN,0.00,VWS V14.01,2013-02-10 01:48:00,
2013-02-09 19:53:00,52.9,51.2,29.26,North,0,0.0,0.0,94,0.00,,BKN,0.00,VWS V14.01,2013-02-10 01:53:00,
2013-02-09 19:58:00,53.1,51.7,29.26,North,0,0.0,0.0,95,0.00,,BKN,0.00,VWS V14.01,2013-02-10 01:58:00,
2013-02-09 20:04:00,53.4,52.0,29.29,North,0,0.0,0.0,95,0.00,,BKN,0.00,VWS V14.01,2013-02-10 02:04:00,
2013-02-09 20:09:00,54.7,53.6,29.29,North,0,0.0,0.0,96,0.00,,BKN,0.00,VWS V14.01,2013-02-10 02:09:00,
2013-02-09 20:14:00,54.1,52.5,29.29,North,0,0.0,0.0,94,0.00,,BKN,0.00,VWS V14.01,2013-02-10 02:14:00,
2013-02-09 20:19:00,54.0,52.0,29.29,North,0,0.0,0.0,93,0.00,,BKN,0.00,VWS V14.01,2013-02-10 02:19:00,
2013-02-09 20:24:00,54.0,52.0,29.29,North,0,0.0,0.0,93,0.00,,BKN,0.00,VWS V14.01,2013-02-10 02:24:00,
2013-02-09 20:29:00,54.0,52.0,29.29,North,0,0.0,0.0,93,0.00,,BKN,0.00,VWS V14.01,2013-02-10 02:29:00,
2013-02-09 20:34:00,54.0,52.0,29.26,North,0,0.0,0.0,93,0.00,,BKN,0.00,VWS V14.01,2013-02-10 02:34:00,
2013-02-09 20:40:00,54.0,52.3,29.26,North,0,0.0,0.0,94,0.00,,BKN,0.00,VWS V14.01,2013-02-10 02:40:00,
2013-02-09 20:45:00,54.0,52.3,29.26,North,0,0.0,0.0,94,0.00,,BKN,0.00,VWS V14.01,2013-02-10 02:45:00,
2013-02-09 20:50:00,54.0,52.3,29.26,North,0,0.0,0.0,94,0.00,,BKN,0.00,VWS V14.01,2013-02-10 02:50:00,
2013-02-09 20:55:00,54.0,52.6,29.26,North,0,0.0,0.0,95,0.00,,BKN,0.00,VWS V14.01,2013-02-10 02:55:00,
2013-02-09 21:00:00,54.1,52.7,29.26,North,0,0.0,0.0,95,0.00,,BKN,0.00,VWS V14.01,2013-02-10 03:00:00,
2013-02-09 21:05:00,54.3,52.9,29.26,North,0,0.0,0.0,95,0.00,,BKN,0.00,VWS V14.01,2013-02-10 03:05:00,
2013-02-09 21:10:00,54.3,52.9,29.26,North,0,0.0,0.0,95,0.00,,BKN,0.00,VWS V14.01,2013-02-10 03:10:00,
2013-02-09 21:15:00,54.3,52.9,29.26,North,0,0.0,0.0,95,0.00,,BKN,0.00,VWS V14.01,2013-02-10 03:15:00,
2013-02-09 21:20:00,54.5,53.4,29.26,North,0,0.0,0.0,96,0.00,,BKN,0.00,VWS V14.01,2013-02-10 03:20:00,
2013-02-09 21:25:00,54.7,53.6,29.26,North,0,0.0,0.0,96,0.00,,BKN,0.00,VWS V14.01,2013-02-10 03:25:00,
2013-02-09 21:31:00,54.9,53.7,29.23,North,0,0.0,0.0,96,0.00,,BKN,0.00,VWS V14.01,2013-02-10 03:31:00,
2013-02-09 21:36:00,54.9,54.0,29.23,North,0,0.0,0.0,97,0.00,,BKN,0.00,VWS V14.01,2013-02-10 03:36:00,
2013-02-09 21:41:00,55.0,54.2,29.23,North,0,0.0,0.0,97,0.00,,BKN,0.00,VWS V14.01,2013-02-10 03:41:00,
2013-02-09 21:46:00,55.2,54.4,29.23,North,0,0.0,0.0,97,0.00,,BKN,0.00,VWS V14.01,2013-02-10 03:46:00,
2013-02-09 21:51:00,55.4,54.6,29.23,North,0,0.0,0.0,97,0.00,,BKN,0.00,VWS V14.01,2013-02-10 03:51:00,
2013-02-09 21:56:00,55.6,54.8,29.23,North,0,0.0,0.0,97,0.00,,BKN,0.00,VWS V14.01,2013-02-10 03:56:00,
2013-02-09 22:01:00,55.8,54.9,29.23,North,0,0.0,0.0,97,0.00,,BKN,0.00,VWS V14.01,2013-02-10 04:01:00,
2013-02-09 22:07:00,55.9,55.4,29.23,North,0,0.0,0.0,98,0.00,,BKN,0.00,VWS V14.01,2013-02-10 04:07:00,
2013-02-09 22:12:00,56.3,55.8,29.23,North,0,0.0,0.0,98,0.00,,BKN,0.00,VWS V14.01,2013-02-10 04:12:00,
2013-02-09 22:17:00,56.5,55.9,29.23,North,0,0.0,0.0,98,0.00,,BKN,0.00,VWS V14.01,2013-02-10 04:17:00,
2013-02-09 22:22:00,56.7,56.1,29.23,North,0,0.0,0.0,98,0.00,,BKN,0.00,VWS V14.01,2013-02-10 04:22:00,
2013-02-09 22:27:00,56.8,56.3,29.23,North,0,0.0,0.0,98,0.00,,BKN,0.00,VWS V14.01,2013-02-10 04:27:00,
2013-02-09 22:32:00,57.0,56.5,29.23,North,0,0.0,0.0,98,0.00,,BKN,0.00,VWS V14.01,2013-02-10 04:32:00,
2013-02-09 22:37:00,57.2,56.6,29.23,North,0,0.0,0.0,98,0.00,,BKN,0.00,VWS V14.01,2013-02-10 04:37:00,
2013-02-09 22:42:00,57.4,56.8,29.23,North,0,0.0,0.0,98,0.00,,BKN,0.00,VWS V14.01,2013-02-10 04:42:00,
2013-02-09 22:47:00,57.6,57.0,29.21,North,0,0.0,0.0,98,0.00,,BKN,0.00,VWS V14.01,2013-02-10 04:47:00,
2013-02-09 22:52:00,57.6,57.0,29.21,North,0,0.0,0.0,98,0.00,,BKN,0.00,VWS V14.01,2013-02-10 04:52:00,
2013-02-09 22:58:00,57.7,57.2,29.21,North,0,0.0,0.0,98,0.00,,BKN,0.00,VWS V14.01,2013-02-10 04:58:00,
2013-02-09 23:00:00,57.9,57.4,29.21,North,0,0.0,0.0,98,0.00,,BKN,0.00,VWS V14.01,2013-02-10 05:00:00,
2013-02-09 23:01:00,57.9,57.4,29.21,North,0,0.0,0.0,98,0.00,,BKN,0.00,VWS V14.01,2013-02-10 05:01:00,
2013-02-09 23:06:00,58.1,57.5,29.21,North,0,0.0,0.0,98,0.00,,BKN,0.00,VWS V14.01,2013-02-10 05:06:00,
2013-02-09 23:12:00,58.3,57.7,29.21,North,0,0.0,0.0,98,0.00,,BKN,0.00,VWS V14.01,2013-02-10 05:12:00,
2013-02-09 23:17:00,58.6,58.1,29.21,North,0,0.0,0.0,98,0.00,,BKN,0.00,VWS V14.01,2013-02-10 05:17:00,
2013-02-09 23:22:00,59.0,58.4,29.21,North,0,0.0,0.0,98,0.00,,BKN,0.00,VWS V14.01,2013-02-10 05:22:00,
2013-02-09 23:27:00,59.4,58.8,29.21,North,0,0.0,0.0,98,0.00,,BKN,0.00,VWS V14.01,2013-02-10 05:27:00,
2013-02-09 23:32:00,59.5,59.0,29.21,North,0,0.0,0.0,98,0.00,,BKN,0.00,VWS V14.01,2013-02-10 05:32:00,
2013-02-09 23:37:00,59.7,59.2,29.21,North,0,0.0,0.0,98,0.00,,BKN,0.00,VWS V14.01,2013-02-10 05:37:00,
2013-02-09 23:42:00,59.7,59.2,29.21,North,0,0.0,0.0,98,0.00,,BKN,0.00,VWS V14.01,2013-02-10 05:42:00,
2013-02-09 23:47:00,59.7,59.2,29.21,North,0,0.0,0.0,98,0.00,,BKN,0.00,VWS V14.01,2013-02-10 05:47:00,
2013-02-09 23:52:00,59.9,59.3,29.21,North,0,0.0,0.0,98,0.00,,BKN,0.00,VWS V14.01,2013-02-10 05:52:00,
2013-02-09 23:57:00,60.1,59.5,29.21,North,0,0.0,0.0,98,0.00,,BKN,0.00,VWS V14.01,2013-02-10 05:57:00,